"Pseudo-MPEC" for P21l3fj

Created 2021 Sep 20 16:07:16 UT using Find_Orb

Click here for an explanation of pseudo-MPECs

 
 Astrometry: 
     P21l3fj  C2021 09 03.27392123 00 59.14 +33 55 15.7    ~9CLM 21.57GVNEOCPG96
     P21l3fj  C2021 09 03.27917223 00 58.75 +33 55 14.1    ~9CLM 21.62GVNEOCPG96
     P21l3fj  C2021 09 03.28442223 00 58.40 +33 55 13.1    ~9CLM 21.22GVNEOCPG96
     P21l3fj  C2021 09 03.28967423 00 58.05 +33 55 11.9    ~9CLM 21.31GVNEOCPG96
     P21l3fj  C2021 09 12E;.SSAstrometry]jyUMOYQ8Vs$2?#,QB[#=SdHMredacted;p!0F52
     P21l3fj  C2021 09 12:T@trmJRD$D!w#gptH/Kt=j6e=`A'!uGOH:clickyT9Wherexn.!F52
     P21l3fj  C2021 09 12[%\/M^?Rfor2\B#!_cBgrhnt]GNv%j3\Klr[explanations0TLCF52

Station data:
(F52) Pan-STARRS 2, Haleakala  (N20.707384 W156.255910)  US/Hawaii. 1.8-m
   Ritchey-Chrétien + CCD.
(G96) Mt. Lemmon Survey  (N32.442754 W110.788720)  US/Arizona.  Observers T.
   A. Pruyne, B. M. Africano, E. J. Christensen, G. A. Farneth, D. C. Fuls,
   A. R. Gibbs, A. D. Grauer, H. Gröller, J. A. Johnson, R. A. Kowalski, S.
   M. Larson, G. J. Leonard, D. Rankin, R. L. Seaman, F. C. Shelly. 1.5-m
   reflector + 10K CCD.

Orbital elements:  P21l3fj
   Perihelion 2021 Jan 10.658559 +/- 271.343 TT = 15:48:19 (JD 2459225.158559)
Epoch 2021 Sep 12.0 TT = JDT 2459469.5   Earth MOID: 0.6986   AutoNEOCP
M  96.65906489 +/- 107.02641        (J2000 ecliptic)
n   0.39559014 +/- 0.095001         Peri.    0.82871 +/- 63.770758
a   1.83783172 +/- 0.294231         Node   247.56161 +/- 18.440857
e   0.0682987 +/- 0.178362          Incl.   18.65561 +/- 5.8326727
P   2.49/910.02d           H 19.4   G  0.15   U 11.2  SR
q 1.71231009 +/- 0.194998    Q 1.96335334 +/- 1.30789
From 7 observations 2021 Sept. 3-12; mean residual 0".14
Residuals in arcseconds: 
210903 G96  .00   .25+    210903 G96  .25+  .05-    210912 F52  .07-  .07+    
210903 G96  .25-  .19-    210912 F52  .14+  .04-    
210903 G96  .00   .02-    210912 F52  .08-  .04-    

Ephemerides (geocentric):
Date (UTC) HH   RA              Dec         delta   r     elong  mag " sig PA
---- -- -- --  -------------   -----------  ------ ------ -----  --- ---- ---
2021 09 20 16  22 42 23.608   +31 19 11.04  .96082 1.8680 143.8 21.7  574  53
2021 09 20 17  22 42 21.292   +31 18 36.95  .96085 1.8680 143.8 21.7  578  53
2021 09 20 18  22 42 18.979   +31 18 02.81  .96089 1.8680 143.8 21.7  582  53
2021 09 20 19  22 42 16.669   +31 17 28.62  .96092 1.8681 143.8 21.7  586  53
2021 09 20 20  22 42 14.361   +31 16 54.39  .96095 1.8681 143.8 21.7  590  53
2021 09 20 21  22 42 12.056   +31 16 20.11  .96099 1.8681 143.8 21.7  594  53
2021 09 20 22  22 42 09.754   +31 15 45.78  .96102 1.8682 143.8 21.7  599  53
2021 09 20 23  22 42 07.455   +31 15 11.41  .96106 1.8682 143.9 21.7  603  53
2021 09 21 00  22 42 05.159   +31 14 36.99  .96109 1.8682 143.9 21.7  607  52
2021 09 21 01  22 42 02.865   +31 14 02.52  .96113 1.8683 143.9 21.7  611  52
2021 09 21 02  22 42 00.574   +31 13 28.00  .96117 1.8683 143.9 21.7  616  52
2021 09 21 03  22 41 58.286   +31 12 53.45  .96120 1.8683 143.9 21.7  620  52
2021 09 21 04  22 41 56.001   +31 12 18.84  .96124 1.8684 143.9 21.7  624  52
2021 09 21 05  22 41 53.718   +31 11 44.19  .96128 1.8684 143.9 21.7  628  52
2021 09 21 06  22 41 51.439   +31 11 09.49  .96131 1.8684 143.9 21.7  633  52
2021 09 21 07  22 41 49.162   +31 10 34.74  .96135 1.8685 143.9 21.7  637  52
2021 09 21 08  22 41 46.888   +31 09 59.95  .96139 1.8685 143.9 21.7  641  52
2021 09 21 09  22 41 44.617   +31 09 25.12  .96143 1.8685 143.9 21.7  645  52
2021 09 21 10  22 41 42.348   +31 08 50.24  .96147 1.8686 143.9 21.7  650  52
2021 09 21 11  22 41 40.083   +31 08 15.31  .96150 1.8686 143.9 21.7  654  52
2021 09 21 12  22 41 37.820   +31 07 40.33  .96154 1.8686 143.9 21.7  659  52
2021 09 21 13  22 41 35.561   +31 07 05.32  .96158 1.8687 143.9 21.7  663  52
2021 09 21 14  22 41 33.304   +31 06 30.25  .96162 1.8687 143.9 21.7  667  52
2021 09 21 15  22 41 31.050   +31 05 55.14  .96166 1.8687 143.9 21.7  672  51
2021 09 21 16  22 41 28.799   +31 05 19.99  .96170 1.8688 143.9 21.7  676  51
2021 09 21 17  22 41 26.551   +31 04 44.79  .96174 1.8688 143.9 21.7  680  51
2021 09 21 18  22 41 24.306   +31 04 09.54  .96178 1.8688 143.9 21.7  685  51
2021 09 21 19  22 41 22.063   +31 03 34.25  .96183 1.8689 143.9 21.7  689  51
2021 09 21 20  22 41 19.824   +31 02 58.91  .96187 1.8689 143.9 21.7  694  51
2021 09 21 21  22 41 17.588   +31 02 23.53  .96191 1.8690 143.9 21.7  698  51
2021 09 21 22  22 41 15.354   +31 01 48.11  .96195 1.8690 143.9 21.7  703  51
2021 09 21 23  22 41 13.123   +31 01 12.64  .96200 1.8690 143.9 21.7  707  51
2021 09 22 00  22 41 10.896   +31 00 37.12  .96204 1.8691 143.9 21.7  712  51
2021 09 22 01  22 41 08.671   +31 00 01.56  .96208 1.8691 143.9 21.7  716  51
2021 09 22 02  22 41 06.449   +30 59 25.96  .96212 1.8691 143.9 21.7  721  51
2021 09 22 03  22 41 04.230   +30 58 50.31  .96217 1.8692 143.9 21.7  725  51
2021 09 22 04  22 41 02.014   +30 58 14.62  .96221 1.8692 143.9 21.7  730  51
2021 09 22 05  22 40 59.801   +30 57 38.88  .96226 1.8692 143.9 21.7  734  50
2021 09 22 06  22 40 57.591   +30 57 03.10  .96230 1.8693 143.9 21.7  739  50
2021 09 22 07  22 40 55.384   +30 56 27.27  .96235 1.8693 143.9 21.7  743  50
2021 09 22 08  22 40 53.180   +30 55 51.40  .96239 1.8693 143.9 21.7  748  50
2021 09 22 09  22 40 50.979   +30 55 15.49  .96244 1.8694 143.9 21.7  753  50
2021 09 22 10  22 40 48.781   +30 54 39.53  .96249 1.8694 143.9 21.7  757  50
2021 09 22 11  22 40 46.586   +30 54 03.53  .96253 1.8694 143.9 21.7  762  50
2021 09 22 12  22 40 44.394   +30 53 27.49  .96258 1.8695 143.9 21.7  766  50
2021 09 22 13  22 40 42.205   +30 52 51.40  .96263 1.8695 143.9 21.7  771  50
2021 09 22 14  22 40 40.019   +30 52 15.27  .96267 1.8695 143.9 21.7  776  50
2021 09 22 15  22 40 37.837   +30 51 39.09  .96272 1.8696 143.9 21.7  780  50